Location: C�mpuri de-Sus
(45.9500°N, 22.5500°E)
Time: 06:47:19
(UTC+00:00)

Cosmos 839 Rocket - Pass Details

Date: 06 December 2023
Orbit: 960 x 2092 km, 65.9° (Epoch: 04 March)

Event Time Altitude Azimuth Distance (km) Brightness Sun altitude
Exits shadow 23:35:10 22° 73° (ENE) 3,650 7.0 -62.2°
Drops below altitude 10° 23:40:22 10° 49° (NE) 4,526 7.7 -61.6°
Sets 23:44:25 0° 39° (NE) 5,448 8.3 -61.1°
